owner,sensor,date,latitude,longitude,air_pressure(mBar),qcFlag 
DISL,ioos:station:DISL:DISL:1,2019-09-01T00:10:00Z,30.2513,-88.0778,1015.578361,11111222 
DISL,ioos:station:DISL:DISL:1,2019-09-01T01:10:00Z,30.2513,-88.0778,1015.239722,11111222 
DISL,ioos:station:DISL:DISL:1,2019-09-01T02:10:00Z,30.2513,-88.0778,1015.917,11111222 
DISL,ioos:station:DISL:DISL:1,2019-09-01T03:10:00Z,30.2513,-88.0778,1016.255639,11111222 
DISL,ioos:station:DISL:DISL:1,2019-09-01T04:10:00Z,30.2513,-88.0778,1015.917,11111222 
DISL,ioos:station:DISL:DISL:1,2019-09-01T05:10:00Z,30.2513,-88.0778,1016.255639,11111222 
DISL,ioos:station:DISL:DISL:1,2019-09-01T06:10:00Z,30.2513,-88.0778,1016.255639,11111222 
DISL,ioos:station:DISL:DISL:1,2019-09-01T07:10:00Z,30.2513,-88.0778,1015.578361,11111222 
DISL,ioos:station:DISL:DISL:1,2019-09-01T08:10:00Z,30.2513,-88.0778,1015.239722,11111222 
DISL,ioos:station:DISL:DISL:1,2019-09-01T09:10:00Z,30.2513,-88.0778,1015.239722,11111222 
DISL,ioos:station:DISL:DISL:1,2019-09-01T10:10:00Z,30.2513,-88.0778,1015.239722,11111222 
DISL,ioos:station:DISL:DISL:1,2019-09-01T11:10:00Z,30.2513,-88.0778,1015.917,11111222 
DISL,ioos:station:DISL:DISL:1,2019-09-01T12:10:00Z,30.2513,-88.0778,1016.594278,11111222 
DISL,ioos:station:DISL:DISL:1,2019-09-01T13:10:00Z,30.2513,-88.0778,1017.271556,11111222 
DISL,ioos:station:DISL:DISL:1,2019-09-01T14:10:00Z,30.2513,-88.0778,1017.610195,11111222 
DISL,ioos:station:DISL:DISL:1,2019-09-01T15:10:00Z,30.2513,-88.0778,1017.610195,11111222 
DISL,ioos:station:DISL:DISL:1,2019-09-01T16:10:00Z,30.2513,-88.0778,1017.948834,11111222 
DISL,ioos:station:DISL:DISL:1,2019-09-01T17:10:00Z,30.2513,-88.0778,1017.948834,11111222 
DISL,ioos:station:DISL:DISL:1,2019-09-01T18:10:00Z,30.2513,-88.0778,1017.271556,11111222 
DISL,ioos:station:DISL:DISL:1,2019-09-01T19:10:00Z,30.2513,-88.0778,1016.594278,11111222 
DISL,ioos:station:DISL:DISL:1,2019-09-01T20:10:00Z,30.2513,-88.0778,1015.578361,11111222 
DISL,ioos:station:DISL:DISL:1,2019-09-01T21:10:00Z,30.2513,-88.0778,1015.239722,11111222 
DISL,ioos:station:DISL:DISL:1,2019-09-01T22:10:00Z,30.2513,-88.0778,1014.901083,11111222 
DISL,ioos:station:DISL:DISL:1,2019-09-01T23:10:00Z,30.2513,-88.0778,1015.578361,11111222 
DISL,ioos:station:DISL:DISL:1,2019-09-02T00:10:00Z,30.2513,-88.0778,1015.239722,11111222 
DISL,ioos:station:DISL:DISL:1,2019-09-02T01:10:00Z,30.2513,-88.0778,1015.239722,11111222 
DISL,ioos:station:DISL:DISL:1,2019-09-02T02:10:00Z,30.2513,-88.0778,1015.917,11111222 
DISL,ioos:station:DISL:DISL:1,2019-09-02T03:10:00Z,30.2513,-88.0778,1015.917,11111222 
DISL,ioos:station:DISL:DISL:1,2019-09-02T04:10:00Z,30.2513,-88.0778,1015.239722,11111222 
DISL,ioos:station:DISL:DISL:1,2019-09-02T05:10:00Z,30.2513,-88.0778,1014.901083,11111222 
DISL,ioos:station:DISL:DISL:1,2019-09-02T06:10:00Z,30.2513,-88.0778,1014.562444,11111222 
DISL,ioos:station:DISL:DISL:1,2019-09-02T07:10:00Z,30.2513,-88.0778,1014.901083,11111222 
DISL,ioos:station:DISL:DISL:1,2019-09-02T08:10:00Z,30.2513,-88.0778,1014.223805,11111222 
DISL,ioos:station:DISL:DISL:1,2019-09-02T09:10:00Z,30.2513,-88.0778,1014.562444,11111222 
DISL,ioos:station:DISL:DISL:1,2019-09-02T10:10:00Z,30.2513,-88.0778,1014.562444,11111222 
DISL,ioos:station:DISL:DISL:1,2019-09-02T11:10:00Z,30.2513,-88.0778,1014.562444,11111222 
DISL,ioos:station:DISL:DISL:1,2019-09-02T12:10:00Z,30.2513,-88.0778,1015.578361,11111222 
DISL,ioos:station:DISL:DISL:1,2019-09-02T13:10:00Z,30.2513,-88.0778,1016.255639,11111222 
DISL,ioos:station:DISL:DISL:1,2019-09-02T16:10:00Z,30.2513,-88.0778,1016.594278,11111222 
DISL,ioos:station:DISL:DISL:1,2019-09-02T17:10:00Z,30.2513,-88.0778,1015.917,11111222 
DISL,ioos:station:DISL:DISL:1,2019-09-02T18:10:00Z,30.2513,-88.0778,1014.901083,11111222 
DISL,ioos:station:DISL:DISL:1,2019-09-02T19:10:00Z,30.2513,-88.0778,1014.562444,11111222 
DISL,ioos:station:DISL:DISL:1,2019-09-02T20:10:00Z,30.2513,-88.0778,1013.546527,11111222 
DISL,ioos:station:DISL:DISL:1,2019-09-02T21:10:00Z,30.2513,-88.0778,1013.207888,11111222 
DISL,ioos:station:DISL:DISL:1,2019-09-02T22:10:00Z,30.2513,-88.0778,1013.546527,11111222 
DISL,ioos:station:DISL:DISL:1,2019-09-02T23:10:00Z,30.2513,-88.0778,1013.546527,11111222 
DISL,ioos:station:DISL:DISL:1,2019-09-03T00:10:00Z,30.2513,-88.0778,1012.869249,11111222 
DISL,ioos:station:DISL:DISL:1,2019-09-03T01:10:00Z,30.2513,-88.0778,1013.207888,11111222 
DISL,ioos:station:DISL:DISL:1,2019-09-03T02:10:00Z,30.2513,-88.0778,1013.207888,11111222 
DISL,ioos:station:DISL:DISL:1,2019-09-03T03:10:00Z,30.2513,-88.0778,1013.546527,11111222 
DISL,ioos:station:DISL:DISL:1,2019-09-03T04:10:00Z,30.2513,-88.0778,1013.885166,11111222 
DISL,ioos:station:DISL:DISL:1,2019-09-03T05:10:00Z,30.2513,-88.0778,1013.207888,11111222 
DISL,ioos:station:DISL:DISL:1,2019-09-03T06:10:00Z,30.2513,-88.0778,1012.869249,11111222 
DISL,ioos:station:DISL:DISL:1,2019-09-03T07:10:00Z,30.2513,-88.0778,1012.869249,11111222 
DISL,ioos:station:DISL:DISL:1,2019-09-03T08:10:00Z,30.2513,-88.0778,1012.53061,11111222 
DISL,ioos:station:DISL:DISL:1,2019-09-03T09:10:00Z,30.2513,-88.0778,1012.191971,11111222 
DISL,ioos:station:DISL:DISL:1,2019-09-03T10:10:00Z,30.2513,-88.0778,1012.53061,11111222 
DISL,ioos:station:DISL:DISL:1,2019-09-03T11:10:00Z,30.2513,-88.0778,1013.207888,11111222 
DISL,ioos:station:DISL:DISL:1,2019-09-03T12:10:00Z,30.2513,-88.0778,1014.223805,11111222 
DISL,ioos:station:DISL:DISL:1,2019-09-03T13:10:00Z,30.2513,-88.0778,1014.562444,11111222 
DISL,ioos:station:DISL:DISL:1,2019-09-03T14:10:00Z,30.2513,-88.0778,1015.239722,11111222 
DISL,ioos:station:DISL:DISL:1,2019-09-03T15:10:00Z,30.2513,-88.0778,1015.239722,11111222 
DISL,ioos:station:DISL:DISL:1,2019-09-03T16:10:00Z,30.2513,-88.0778,1014.562444,11111222 
DISL,ioos:station:DISL:DISL:1,2019-09-03T17:10:00Z,30.2513,-88.0778,1014.901083,11111222 
DISL,ioos:station:DISL:DISL:1,2019-09-03T18:11:00Z,30.2513,-88.0778,1013.885166,11111222 
DISL,ioos:station:DISL:DISL:1,2019-09-03T19:11:00Z,30.2513,-88.0778,1012.869249,11111222 
DISL,ioos:station:DISL:DISL:1,2019-09-03T20:11:00Z,30.2513,-88.0778,1012.191971,11111222 
DISL,ioos:station:DISL:DISL:1,2019-09-03T21:11:00Z,30.2513,-88.0778,1012.191971,11111222 
DISL,ioos:station:DISL:DISL:1,2019-09-03T22:11:00Z,30.2513,-88.0778,1012.53061,11111222 
DISL,ioos:station:DISL:DISL:1,2019-09-03T23:11:00Z,30.2513,-88.0778,1012.53061,11111222 
DISL,ioos:station:DISL:DISL:1,2019-09-04T00:11:00Z,30.2513,-88.0778,1012.53061,11111222 
DISL,ioos:station:DISL:DISL:1,2019-09-04T01:11:00Z,30.2513,-88.0778,1013.207888,11111222 
DISL,ioos:station:DISL:DISL:1,2019-09-04T02:11:00Z,30.2513,-88.0778,1013.885166,11111222 
DISL,ioos:station:DISL:DISL:1,2019-09-04T03:11:00Z,30.2513,-88.0778,1013.885166,11111222 
DISL,ioos:station:DISL:DISL:1,2019-09-04T04:11:00Z,30.2513,-88.0778,1014.223805,11111222 
DISL,ioos:station:DISL:DISL:1,2019-09-04T05:11:00Z,30.2513,-88.0778,1013.546527,11111222 
DISL,ioos:station:DISL:DISL:1,2019-09-04T06:11:00Z,30.2513,-88.0778,1012.869249,11111222 
DISL,ioos:station:DISL:DISL:1,2019-09-04T07:11:00Z,30.2513,-88.0778,1013.207888,11111222 
DISL,ioos:station:DISL:DISL:1,2019-09-04T08:11:00Z,30.2513,-88.0778,1013.207888,11111222 
DISL,ioos:station:DISL:DISL:1,2019-09-04T09:11:00Z,30.2513,-88.0778,1013.207888,11111222 
DISL,ioos:station:DISL:DISL:1,2019-09-04T10:11:00Z,30.2513,-88.0778,1013.885166,11111222 
DISL,ioos:station:DISL:DISL:1,2019-09-04T11:11:00Z,30.2513,-88.0778,1014.223805,11111222 
DISL,ioos:station:DISL:DISL:1,2019-09-04T12:11:00Z,30.2513,-88.0778,1015.239722,11111222 
DISL,ioos:station:DISL:DISL:1,2019-09-04T13:11:00Z,30.2513,-88.0778,1015.578361,11111222 
DISL,ioos:station:DISL:DISL:1,2019-09-04T14:11:00Z,30.2513,-88.0778,1015.578361,11111222 
DISL,ioos:station:DISL:DISL:1,2019-09-04T15:11:00Z,30.2513,-88.0778,1015.917,11111222 
DISL,ioos:station:DISL:DISL:1,2019-09-04T16:11:00Z,30.2513,-88.0778,1016.255639,11111222 
DISL,ioos:station:DISL:DISL:1,2019-09-04T17:11:00Z,30.2513,-88.0778,1015.917,11111222 
DISL,ioos:station:DISL:DISL:1,2019-09-04T18:11:00Z,30.2513,-88.0778,1015.578361,11111222 
DISL,ioos:station:DISL:DISL:1,2019-09-04T19:11:00Z,30.2513,-88.0778,1014.901083,11111222 
DISL,ioos:station:DISL:DISL:1,2019-09-04T20:11:00Z,30.2513,-88.0778,1013.885166,11111222 
DISL,ioos:station:DISL:DISL:1,2019-09-04T21:11:00Z,30.2513,-88.0778,1013.546527,11111222 
DISL,ioos:station:DISL:DISL:1,2019-09-04T22:11:00Z,30.2513,-88.0778,1013.546527,11111222 
DISL,ioos:station:DISL:DISL:1,2019-09-04T23:11:00Z,30.2513,-88.0778,1014.223805,11111222 
DISL,ioos:station:DISL:DISL:1,2019-09-04T23:41:00Z,30.2513,-88.0778,1014.223805,11111222 
DISL,ioos:station:DISL:DISL:1,2019-09-05T01:11:00Z,30.2513,-88.0778,1013.885166,11111222 
DISL,ioos:station:DISL:DISL:1,2019-09-05T01:41:00Z,30.2513,-88.0778,1014.562444,11111222 
DISL,ioos:station:DISL:DISL:1,2019-09-05T03:41:00Z,30.2513,-88.0778,1015.239722,11111222 
DISL,ioos:station:DISL:DISL:1,2019-09-05T04:41:00Z,30.2513,-88.0778,1015.239722,11111222 
DISL,ioos:station:DISL:DISL:1,2019-09-05T05:41:00Z,30.2513,-88.0778,1014.562444,11111222 
DISL,ioos:station:DISL:DISL:1,2019-09-05T06:41:00Z,30.2513,-88.0778,1015.239722,11111222 
DISL,ioos:station:DISL:DISL:1,2019-09-05T08:11:00Z,30.2513,-88.0778,1014.562444,11111222 
DISL,ioos:station:DISL:DISL:1,2019-09-05T09:11:00Z,30.2513,-88.0778,1015.239722,11111222 
DISL,ioos:station:DISL:DISL:1,2019-09-05T09:41:00Z,30.2513,-88.0778,1014.901083,11111222 
DISL,ioos:station:DISL:DISL:1,2019-09-05T11:11:00Z,30.2513,-88.0778,1015.917,11111222 
DISL,ioos:station:DISL:DISL:1,2019-09-05T12:11:00Z,30.2513,-88.0778,1015.917,11111222 
DISL,ioos:station:DISL:DISL:1,2019-09-05T13:11:00Z,30.2513,-88.0778,1016.932917,11111222 
DISL,ioos:station:DISL:DISL:1,2019-09-05T14:11:00Z,30.2513,-88.0778,1017.271556,11111222 
DISL,ioos:station:DISL:DISL:1,2019-09-05T15:11:00Z,30.2513,-88.0778,1017.271556,11111222 
DISL,ioos:station:DISL:DISL:1,2019-09-05T16:11:00Z,30.2513,-88.0778,1017.271556,11111222 
DISL,ioos:station:DISL:DISL:1,2019-09-05T17:11:00Z,30.2513,-88.0778,1017.271556,11111222 
DISL,ioos:station:DISL:DISL:1,2019-09-05T18:11:00Z,30.2513,-88.0778,1016.255639,11111222 
DISL,ioos:station:DISL:DISL:1,2019-09-05T19:11:00Z,30.2513,-88.0778,1015.578361,11111222 
DISL,ioos:station:DISL:DISL:1,2019-09-05T20:11:00Z,30.2513,-88.0778,1014.901083,11111222 
DISL,ioos:station:DISL:DISL:1,2019-09-05T21:11:00Z,30.2513,-88.0778,1014.223805,11111222 
DISL,ioos:station:DISL:DISL:1,2019-09-05T22:11:00Z,30.2513,-88.0778,1013.885166,11111222 
DISL,ioos:station:DISL:DISL:1,2019-09-05T23:11:00Z,30.2513,-88.0778,1014.223805,11111222 
DISL,ioos:station:DISL:DISL:1,2019-09-05T23:41:00Z,30.2513,-88.0778,1013.546527,11111222 
DISL,ioos:station:DISL:DISL:1,2019-09-06T00:41:00Z,30.2513,-88.0778,1013.885166,11111222 
DISL,ioos:station:DISL:DISL:1,2019-09-06T01:41:00Z,30.2513,-88.0778,1014.562444,11111222 
DISL,ioos:station:DISL:DISL:1,2019-09-06T02:41:00Z,30.2513,-88.0778,1014.901083,11111222 
DISL,ioos:station:DISL:DISL:1,2019-09-06T03:41:00Z,30.2513,-88.0778,1014.562444,11111222 
DISL,ioos:station:DISL:DISL:1,2019-09-06T04:41:00Z,30.2513,-88.0778,1014.562444,11111222 
DISL,ioos:station:DISL:DISL:1,2019-09-06T08:41:00Z,30.2513,-88.0778,1014.562444,11111222 
DISL,ioos:station:DISL:DISL:1,2019-09-06T09:41:00Z,30.2513,-88.0778,1014.223805,11111222 
DISL,ioos:station:DISL:DISL:1,2019-09-06T11:11:00Z,30.2513,-88.0778,1014.901083,11111222 
DISL,ioos:station:DISL:DISL:1,2019-09-06T12:11:00Z,30.2513,-88.0778,1015.578361,11111222 
DISL,ioos:station:DISL:DISL:1,2019-09-06T13:11:00Z,30.2513,-88.0778,1016.255639,11111222 
DISL,ioos:station:DISL:DISL:1,2019-09-06T14:11:00Z,30.2513,-88.0778,1016.594278,11111222 
DISL,ioos:station:DISL:DISL:1,2019-09-06T15:11:00Z,30.2513,-88.0778,1016.932917,11111222 
DISL,ioos:station:DISL:DISL:1,2019-09-06T16:11:00Z,30.2513,-88.0778,1016.255639,11111222 
DISL,ioos:station:DISL:DISL:1,2019-09-06T17:11:00Z,30.2513,-88.0778,1016.255639,11111222 
DISL,ioos:station:DISL:DISL:1,2019-09-06T18:11:00Z,30.2513,-88.0778,1015.917,11111222 
DISL,ioos:station:DISL:DISL:1,2019-09-06T19:11:00Z,30.2513,-88.0778,1014.562444,11111222 
DISL,ioos:station:DISL:DISL:1,2019-09-06T20:11:00Z,30.2513,-88.0778,1014.562444,11111222 
DISL,ioos:station:DISL:DISL:1,2019-09-06T21:11:00Z,30.2513,-88.0778,1013.546527,11111222 
DISL,ioos:station:DISL:DISL:1,2019-09-06T22:11:00Z,30.2513,-88.0778,1013.885166,11111222 
DISL,ioos:station:DISL:DISL:1,2019-09-06T23:11:00Z,30.2513,-88.0778,1013.546527,11111222 
DISL,ioos:station:DISL:DISL:1,2019-09-06T23:41:00Z,30.2513,-88.0778,1013.546527,11111222 
DISL,ioos:station:DISL:DISL:1,2019-09-07T01:11:00Z,30.2513,-88.0778,1014.223805,11111222 
DISL,ioos:station:DISL:DISL:1,2019-09-07T01:41:00Z,30.2513,-88.0778,1014.901083,11111222 
DISL,ioos:station:DISL:DISL:1,2019-09-07T02:41:00Z,30.2513,-88.0778,1015.239722,11111222 
DISL,ioos:station:DISL:DISL:1,2019-09-07T03:41:00Z,30.2513,-88.0778,1015.239722,11111222 
DISL,ioos:station:DISL:DISL:1,2019-09-07T04:41:00Z,30.2513,-88.0778,1015.239722,11111222 
DISL,ioos:station:DISL:DISL:1,2019-09-07T05:41:00Z,30.2513,-88.0778,1014.901083,11111222 
DISL,ioos:station:DISL:DISL:1,2019-09-07T06:41:00Z,30.2513,-88.0778,1015.239722,11111222 
DISL,ioos:station:DISL:DISL:1,2019-09-07T07:41:00Z,30.2513,-88.0778,1014.562444,11111222 
DISL,ioos:station:DISL:DISL:1,2019-09-07T08:41:00Z,30.2513,-88.0778,1014.901083,11111222 
DISL,ioos:station:DISL:DISL:1,2019-09-07T09:41:00Z,30.2513,-88.0778,1014.223805,11111222 
DISL,ioos:station:DISL:DISL:1,2019-09-07T10:41:00Z,30.2513,-88.0778,1014.901083,11111222 
DISL,ioos:station:DISL:DISL:1,2019-09-07T11:41:00Z,30.2513,-88.0778,1015.917,11111222 
DISL,ioos:station:DISL:DISL:1,2019-09-07T12:41:00Z,30.2513,-88.0778,1016.255639,11111222 
DISL,ioos:station:DISL:DISL:1,2019-09-07T14:11:00Z,30.2513,-88.0778,1016.594278,11111222 
DISL,ioos:station:DISL:DISL:1,2019-09-07T15:11:00Z,30.2513,-88.0778,1016.932917,11111222 
DISL,ioos:station:DISL:DISL:1,2019-09-07T16:11:00Z,30.2513,-88.0778,1016.255639,11111222 
DISL,ioos:station:DISL:DISL:1,2019-09-07T17:11:00Z,30.2513,-88.0778,1015.917,11111222 
DISL,ioos:station:DISL:DISL:1,2019-09-07T18:11:00Z,30.2513,-88.0778,1015.239722,11111222 
DISL,ioos:station:DISL:DISL:1,2019-09-07T19:11:00Z,30.2513,-88.0778,1015.239722,11111222 
DISL,ioos:station:DISL:DISL:1,2019-09-07T20:11:00Z,30.2513,-88.0778,1014.223805,11111222 
DISL,ioos:station:DISL:DISL:1,2019-09-07T21:11:00Z,30.2513,-88.0778,1013.885166,11111222 
DISL,ioos:station:DISL:DISL:1,2019-09-07T22:11:00Z,30.2513,-88.0778,1013.885166,11111222 
DISL,ioos:station:DISL:DISL:1,2019-09-07T23:11:00Z,30.2513,-88.0778,1013.546527,11111222 
DISL,ioos:station:DISL:DISL:1,2019-09-07T23:41:00Z,30.2513,-88.0778,1013.885166,11111222 
DISL,ioos:station:DISL:DISL:1,2019-09-08T00:41:00Z,30.2513,-88.0778,1013.885166,11111222 
DISL,ioos:station:DISL:DISL:1,2019-09-08T01:41:00Z,30.2513,-88.0778,1014.223805,11111222 
DISL,ioos:station:DISL:DISL:1,2019-09-08T02:41:00Z,30.2513,-88.0778,1014.901083,11111222 
DISL,ioos:station:DISL:DISL:1,2019-09-08T03:41:00Z,30.2513,-88.0778,1014.901083,11111222 
DISL,ioos:station:DISL:DISL:1,2019-09-08T04:41:00Z,30.2513,-88.0778,1014.562444,11111222 
DISL,ioos:station:DISL:DISL:1,2019-09-08T05:41:00Z,30.2513,-88.0778,1014.562444,11111222 
DISL,ioos:station:DISL:DISL:1,2019-09-08T06:41:00Z,30.2513,-88.0778,1014.901083,11111222 
DISL,ioos:station:DISL:DISL:1,2019-09-08T07:41:00Z,30.2513,-88.0778,1014.562444,11111222 
DISL,ioos:station:DISL:DISL:1,2019-09-08T08:41:00Z,30.2513,-88.0778,1014.223805,11111222 
DISL,ioos:station:DISL:DISL:1,2019-09-08T09:41:00Z,30.2513,-88.0778,1014.223805,11111222 
DISL,ioos:station:DISL:DISL:1,2019-09-08T10:41:00Z,30.2513,-88.0778,1014.901083,11111222 
DISL,ioos:station:DISL:DISL:1,2019-09-08T11:41:00Z,30.2513,-88.0778,1015.578361,11111222 
DISL,ioos:station:DISL:DISL:1,2019-09-08T12:41:00Z,30.2513,-88.0778,1016.255639,11111222 
DISL,ioos:station:DISL:DISL:1,2019-09-08T13:41:00Z,30.2513,-88.0778,1016.255639,11111222 
DISL,ioos:station:DISL:DISL:1,2019-09-08T14:41:00Z,30.2513,-88.0778,1016.932917,11111222 
DISL,ioos:station:DISL:DISL:1,2019-09-08T15:41:00Z,30.2513,-88.0778,1016.932917,11111222 
DISL,ioos:station:DISL:DISL:1,2019-09-08T16:41:00Z,30.2513,-88.0778,1016.255639,11111222 
DISL,ioos:station:DISL:DISL:1,2019-09-08T17:41:00Z,30.2513,-88.0778,1016.594278,11111222 
DISL,ioos:station:DISL:DISL:1,2019-09-08T19:10:00Z,30.2513,-88.0778,1015.578361,11111222 
DISL,ioos:station:DISL:DISL:1,2019-09-08T20:10:00Z,30.2513,-88.0778,1015.578361,11111222 
DISL,ioos:station:DISL:DISL:1,2019-09-08T21:10:00Z,30.2513,-88.0778,1015.239722,11111222 
DISL,ioos:station:DISL:DISL:1,2019-09-08T22:10:00Z,30.2513,-88.0778,1015.239722,11111222 
DISL,ioos:station:DISL:DISL:1,2019-09-08T23:10:00Z,30.2513,-88.0778,1015.239722,11111222 
DISL,ioos:station:DISL:DISL:1,2019-09-08T23:40:00Z,30.2513,-88.0778,1014.901083,11111222 
DISL,ioos:station:DISL:DISL:1,2019-09-09T01:10:00Z,30.2513,-88.0778,1015.917,11111222 
DISL,ioos:station:DISL:DISL:1,2019-09-09T02:10:00Z,30.2513,-88.0778,1016.255639,11111222 
DISL,ioos:station:DISL:DISL:1,2019-09-09T03:10:00Z,30.2513,-88.0778,1016.594278,11111222 
DISL,ioos:station:DISL:DISL:1,2019-09-09T04:10:00Z,30.2513,-88.0778,1016.255639,11111222 
DISL,ioos:station:DISL:DISL:1,2019-09-09T05:10:00Z,30.2513,-88.0778,1015.917,11111222 
DISL,ioos:station:DISL:DISL:1,2019-09-09T06:10:00Z,30.2513,-88.0778,1016.255639,11111222 
DISL,ioos:station:DISL:DISL:1,2019-09-09T07:10:00Z,30.2513,-88.0778,1016.594278,11111222 
DISL,ioos:station:DISL:DISL:1,2019-09-09T08:10:00Z,30.2513,-88.0778,1016.255639,11111222 
DISL,ioos:station:DISL:DISL:1,2019-09-09T09:10:00Z,30.2513,-88.0778,1016.594278,11111222 
DISL,ioos:station:DISL:DISL:1,2019-09-09T10:10:00Z,30.2513,-88.0778,1017.271556,11111222 
DISL,ioos:station:DISL:DISL:1,2019-09-09T11:10:00Z,30.2513,-88.0778,1017.610195,11111222 
DISL,ioos:station:DISL:DISL:1,2019-09-09T12:10:00Z,30.2513,-88.0778,1017.948834,11111222 
DISL,ioos:station:DISL:DISL:1,2019-09-09T13:10:00Z,30.2513,-88.0778,1018.287473,11111222 
DISL,ioos:station:DISL:DISL:1,2019-09-09T14:10:00Z,30.2513,-88.0778,1019.30339,11111222 
DISL,ioos:station:DISL:DISL:1,2019-09-09T15:10:00Z,30.2513,-88.0778,1019.642029,11111222 
DISL,ioos:station:DISL:DISL:1,2019-09-09T16:10:00Z,30.2513,-88.0778,1019.980668,11111222 
DISL,ioos:station:DISL:DISL:1,2019-09-09T17:10:00Z,30.2513,-88.0778,1019.642029,11111222 
DISL,ioos:station:DISL:DISL:1,2019-09-09T18:10:00Z,30.2513,-88.0778,1019.30339,11111222 
DISL,ioos:station:DISL:DISL:1,2019-09-09T19:10:00Z,30.2513,-88.0778,1018.626112,11111222 
DISL,ioos:station:DISL:DISL:1,2019-09-09T23:10:00Z,30.2513,-88.0778,1017.948834,11111222 
DISL,ioos:station:DISL:DISL:1,2019-09-09T23:40:00Z,30.2513,-88.0778,1017.948834,11111222 
DISL,ioos:station:DISL:DISL:1,2019-09-10T00:40:00Z,30.2513,-88.0778,1018.626112,11111222 
DISL,ioos:station:DISL:DISL:1,2019-09-10T02:10:00Z,30.2513,-88.0778,1018.626112,11111222 
DISL,ioos:station:DISL:DISL:1,2019-09-10T03:10:00Z,30.2513,-88.0778,1019.642029,11111222 
DISL,ioos:station:DISL:DISL:1,2019-09-10T04:10:00Z,30.2513,-88.0778,1019.30339,11111222 
DISL,ioos:station:DISL:DISL:1,2019-09-10T05:10:00Z,30.2513,-88.0778,1019.30339,11111222 
DISL,ioos:station:DISL:DISL:1,2019-09-10T06:10:00Z,30.2513,-88.0778,1019.980668,11111222 
DISL,ioos:station:DISL:DISL:1,2019-09-10T07:10:00Z,30.2513,-88.0778,1019.30339,11111222 
DISL,ioos:station:DISL:DISL:1,2019-09-10T08:10:00Z,30.2513,-88.0778,1019.30339,11111222 
DISL,ioos:station:DISL:DISL:1,2019-09-10T09:10:00Z,30.2513,-88.0778,1019.642029,11111222 
DISL,ioos:station:DISL:DISL:1,2019-09-10T10:10:00Z,30.2513,-88.0778,1019.30339,11111222 
DISL,ioos:station:DISL:DISL:1,2019-09-10T11:10:00Z,30.2513,-88.0778,1020.319307,11111222 
DISL,ioos:station:DISL:DISL:1,2019-09-10T12:10:00Z,30.2513,-88.0778,1020.996585,11111222 
DISL,ioos:station:DISL:DISL:1,2019-09-10T13:10:00Z,30.2513,-88.0778,1021.335224,11111222 
DISL,ioos:station:DISL:DISL:1,2019-09-10T14:10:00Z,30.2513,-88.0778,1022.351141,11111222 
DISL,ioos:station:DISL:DISL:1,2019-09-10T15:10:00Z,30.2513,-88.0778,1022.351141,11111222 
DISL,ioos:station:DISL:DISL:1,2019-09-10T16:10:00Z,30.2513,-88.0778,1022.351141,11111222 
DISL,ioos:station:DISL:DISL:1,2019-09-10T17:10:00Z,30.2513,-88.0778,1022.012502,11111222 
DISL,ioos:station:DISL:DISL:1,2019-09-10T18:10:00Z,30.2513,-88.0778,1022.012502,11111222 
DISL,ioos:station:DISL:DISL:1,2019-09-10T19:10:00Z,30.2513,-88.0778,1022.012502,11111222 
DISL,ioos:station:DISL:DISL:1,2019-09-10T20:10:00Z,30.2513,-88.0778,1021.673863,11111222 
DISL,ioos:station:DISL:DISL:1,2019-09-10T21:10:00Z,30.2513,-88.0778,1020.996585,11111222 
DISL,ioos:station:DISL:DISL:1,2019-09-10T22:10:00Z,30.2513,-88.0778,1020.657946,11111222 
DISL,ioos:station:DISL:DISL:1,2019-09-10T23:10:00Z,30.2513,-88.0778,1020.319307,11111222 
DISL,ioos:station:DISL:DISL:1,2019-09-10T23:40:00Z,30.2513,-88.0778,1020.319307,11111222 
DISL,ioos:station:DISL:DISL:1,2019-09-11T01:10:00Z,30.2513,-88.0778,1020.996585,11111222 
DISL,ioos:station:DISL:DISL:1,2019-09-11T02:10:00Z,30.2513,-88.0778,1020.657946,11111222 
DISL,ioos:station:DISL:DISL:1,2019-09-11T03:10:00Z,30.2513,-88.0778,1021.673863,11111222 
DISL,ioos:station:DISL:DISL:1,2019-09-11T03:40:00Z,30.2513,-88.0778,1021.335224,11111222 
DISL,ioos:station:DISL:DISL:1,2019-09-11T05:10:00Z,30.2513,-88.0778,1021.335224,11111222 
DISL,ioos:station:DISL:DISL:1,2019-09-11T06:10:00Z,30.2513,-88.0778,1021.335224,11111222 
DISL,ioos:station:DISL:DISL:1,2019-09-11T07:10:00Z,30.2513,-88.0778,1020.657946,11111222 
DISL,ioos:station:DISL:DISL:1,2019-09-11T08:10:00Z,30.2513,-88.0778,1020.996585,11111222 
DISL,ioos:station:DISL:DISL:1,2019-09-11T09:10:00Z,30.2513,-88.0778,1020.657946,11111222 
DISL,ioos:station:DISL:DISL:1,2019-09-11T10:10:00Z,30.2513,-88.0778,1020.319307,11111222 
DISL,ioos:station:DISL:DISL:1,2019-09-11T11:10:00Z,30.2513,-88.0778,1020.996585,11111222 
DISL,ioos:station:DISL:DISL:1,2019-09-11T12:10:00Z,30.2513,-88.0778,1022.012502,11111222 
DISL,ioos:station:DISL:DISL:1,2019-09-11T13:10:00Z,30.2513,-88.0778,1022.012502,11111222 
DISL,ioos:station:DISL:DISL:1,2019-09-11T14:10:00Z,30.2513,-88.0778,1022.68978,11111222 
DISL,ioos:station:DISL:DISL:1,2019-09-11T15:10:00Z,30.2513,-88.0778,1023.028419,11111222 
DISL,ioos:station:DISL:DISL:1,2019-09-11T16:10:00Z,30.2513,-88.0778,1022.351141,11111222 
DISL,ioos:station:DISL:DISL:1,2019-09-11T17:10:00Z,30.2513,-88.0778,1022.68978,11111222 
DISL,ioos:station:DISL:DISL:1,2019-09-11T18:10:00Z,30.2513,-88.0778,1021.335224,11111222 
DISL,ioos:station:DISL:DISL:1,2019-09-11T19:10:00Z,30.2513,-88.0778,1020.996585,11111222 
DISL,ioos:station:DISL:DISL:1,2019-09-11T20:10:00Z,30.2513,-88.0778,1020.319307,11111222 
DISL,ioos:station:DISL:DISL:1,2019-09-11T21:10:00Z,30.2513,-88.0778,1019.980668,11111222 
DISL,ioos:station:DISL:DISL:1,2019-09-11T22:10:00Z,30.2513,-88.0778,1019.30339,11111222 
DISL,ioos:station:DISL:DISL:1,2019-09-11T23:10:00Z,30.2513,-88.0778,1018.626112,11111222 
DISL,ioos:station:DISL:DISL:1,2019-09-12T00:10:00Z,30.2513,-88.0778,1018.626112,11111222 
DISL,ioos:station:DISL:DISL:1,2019-09-12T01:10:00Z,30.2513,-88.0778,1019.30339,11111222 
DISL,ioos:station:DISL:DISL:1,2019-09-12T02:10:00Z,30.2513,-88.0778,1019.642029,11111222 
DISL,ioos:station:DISL:DISL:1,2019-09-12T03:10:00Z,30.2513,-88.0778,1020.319307,11111222 
DISL,ioos:station:DISL:DISL:1,2019-09-12T04:10:00Z,30.2513,-88.0778,1019.30339,11111222 
DISL,ioos:station:DISL:DISL:1,2019-09-12T05:10:00Z,30.2513,-88.0778,1018.964751,11111222 
DISL,ioos:station:DISL:DISL:1,2019-09-12T06:10:00Z,30.2513,-88.0778,1018.626112,11111222 
DISL,ioos:station:DISL:DISL:1,2019-09-12T07:10:00Z,30.2513,-88.0778,1018.626112,11111222 
DISL,ioos:station:DISL:DISL:1,2019-09-12T08:10:00Z,30.2513,-88.0778,1018.287473,11111222 
DISL,ioos:station:DISL:DISL:1,2019-09-12T09:10:00Z,30.2513,-88.0778,1017.948834,11111222 
DISL,ioos:station:DISL:DISL:1,2019-09-12T10:10:00Z,30.2513,-88.0778,1017.948834,11111222 